Flag for U.S.A. Weather past 2 weeks in Casper, Wyoming, U.S.A.

Now
52 °F

Clear.


Feels Like: 50 °F
Forecast: 51 / 80 °F
Wind: 6 mph from Northwest

Location: Natrona County International Airport

Current Time: Aug 29, 2014 at 2:42:58 AM

Latest Report: Aug 29, 2014 at 1:53 AM


Visibility: 10 mi

Pressure: 29.87 "Hg

Humidity: 72%

Dew point: 43 °F

Location of CasperLocation

Historic Weather in Casper — Graph

°F

Casper temperature yesterday

Maximum temperature yesterday: 82 °F (at 3:53 PM)
Minimum temperature yesterday: 52 °F (at 10:53 PM)
Average temperature yesterday: 65 °F

Past Weeks' High & Low Weather Summary

 TemperatureHumidityPressure
High92 °F (Aug 17, 2:53 PM)97% (Aug 26, 6:53 AM)30.20 "Hg (Aug 26, 6:53 AM)
Low42 °F (Aug 24, 3:53 AM)9% (Aug 17, 3:53 PM)29.64 "Hg (Aug 20, 3:53 AM)
Average65 °F54%29.91 "Hg
* Reported Aug 14 1:53 AM — Aug 29 1:53 AM, Casper, Weather by CustomWeather, © 2014

Note: Actual official high and low records may vary slightly from our data, if they occured in-between our weather recording intervals... More about our weather records

Advertising

Casper weather history for previous 24 hours

 ConditionsComfort  
Time TempWeatherWind HumidityBarometerVisibility
1:53 AM
Aug 29
52 °FClear.6 mph72%29.87 "Hg10 mi
12:53 AM56 °FClear.3 mph62%29.88 "Hg10 mi
11:53 PM
Aug 28
54 °FClear.7 mph72%29.90 "Hg10 mi
10:53 PM52 °FClear.No wind83%29.92 "Hg10 mi
9:53 PM56 °FClear.6 mph72%29.93 "Hg10 mi
8:53 PM59 °FClear.No wind69%29.93 "Hg10 mi
7:53 PM65 °FPassing clouds.5 mph56%29.91 "Hg10 mi
6:53 PM76 °FSunny.No wind31%29.89 "Hg10 mi
5:53 PM76 °FPartly sunny.3 mph26%29.89 "Hg10 mi
4:53 PM80 °FSunny.6 mph22%29.89 "Hg10 mi
3:53 PM82 °FScattered clouds.9 mph22%29.89 "Hg10 mi
2:53 PM81 °FScattered clouds.7 mph21%29.91 "Hg10 mi
1:53 PM79 °FPassing clouds.8 mph23%29.93 "Hg10 mi
12:53 PM76 °FPassing clouds.7 mph27%29.96 "Hg10 mi
11:53 AM76 °FScattered clouds.10 mph33%29.98 "Hg10 mi
10:53 AM72 °FSunny.7 mph44%30.00 "Hg10 mi
9:53 AM68 °FSunny.9 mph55%30.01 "Hg10 mi
8:53 AM61 °FSunny.13 mph70%30.02 "Hg10 mi
7:53 AM58 °FSunny.8 mph78%30.02 "Hg10 mi
6:53 AM56 °FClear.9 mph84%30.01 "Hg10 mi
5:53 AM57 °FOvercast.12 mph81%29.99 "Hg10 mi
4:53 AM56 °FPartly cloudy.9 mph90%30.00 "Hg10 mi
3:53 AM56 °FOvercast.9 mph90%30.00 "Hg10 mi
2:53 AM56 °FMostly cloudy.12 mph90%30.01 "Hg10 mi
Weather by CustomWeather, © 2014

See weather overviewHow to use our weather pages